Year,Month,Day,Hour,Minute,Value (Times are PST for temperature in C)
2015,03,24,00,00,6.50
2015,03,24,00,01,6.50
2015,03,24,00,02,6.50
2015,03,24,00,03,6.50
2015,03,24,00,04,6.50
2015,03,24,00,05,6.50
2015,03,24,00,06,6.50
2015,03,24,00,07,6.50
2015,03,24,00,08,6.50
2015,03,24,00,09,6.50
2015,03,24,00,10,6.50
2015,03,24,00,11,6.50
2015,03,24,00,12,6.50
2015,03,24,00,13,6.50
2015,03,24,00,14,6.50
2015,03,24,00,15,6.50
2015,03,24,00,16,6.40
2015,03,24,00,17,6.40
2015,03,24,00,18,6.40
2015,03,24,00,19,6.40
2015,03,24,00,20,6.40
2015,03,24,00,21,6.40
2015,03,24,00,22,6.40
2015,03,24,00,23,6.40
2015,03,24,00,24,6.40
2015,03,24,00,25,6.40
2015,03,24,00,26,6.40
2015,03,24,00,27,6.40
2015,03,24,00,28,6.40
2015,03,24,00,29,6.30
2015,03,24,00,30,6.30
2015,03,24,00,31,6.30
2015,03,24,00,32,6.30
2015,03,24,00,33,6.30
2015,03,24,00,34,6.30
2015,03,24,00,35,6.30
2015,03,24,00,36,6.30
2015,03,24,00,37,6.30
2015,03,24,00,38,6.30
2015,03,24,00,39,6.30
2015,03,24,00,40,6.30
2015,03,24,00,41,6.30
2015,03,24,00,42,6.30
2015,03,24,00,43,6.30
2015,03,24,00,44,6.30
2015,03,24,00,45,6.30
2015,03,24,00,46,6.30
2015,03,24,00,47,6.30
2015,03,24,00,48,6.30
2015,03,24,00,49,6.30
2015,03,24,00,50,6.30
2015,03,24,00,51,6.30
2015,03,24,00,52,6.30
2015,03,24,00,53,6.30
2015,03,24,00,54,6.30
2015,03,24,00,55,6.30
2015,03,24,00,56,6.30
2015,03,24,00,57,6.30
2015,03,24,00,58,6.30
2015,03,24,00,59,6.30
2015,03,24,01,00,6.30
2015,03,24,01,01,6.30
2015,03,24,01,02,6.30
2015,03,24,01,03,6.30
2015,03,24,01,04,6.30
2015,03,24,01,05,6.30
2015,03,24,01,06,6.30
2015,03,24,01,07,6.30
2015,03,24,01,08,6.30
2015,03,24,01,09,6.30
2015,03,24,01,10,6.30
2015,03,24,01,11,6.30
2015,03,24,01,12,6.30
2015,03,24,01,13,6.30
2015,03,24,01,14,6.30
2015,03,24,01,15,6.30
2015,03,24,01,16,6.30
2015,03,24,01,17,6.30
2015,03,24,01,18,6.30
2015,03,24,01,19,6.30
2015,03,24,01,20,6.30
2015,03,24,01,21,6.30
2015,03,24,01,22,6.30
2015,03,24,01,23,6.30
2015,03,24,01,24,6.30
2015,03,24,01,25,6.30
2015,03,24,01,26,6.30
2015,03,24,01,27,6.30
2015,03,24,01,28,6.30
2015,03,24,01,29,6.30
2015,03,24,01,30,6.30
2015,03,24,01,31,6.30
2015,03,24,01,32,6.30
2015,03,24,01,33,6.30
2015,03,24,01,34,6.30
2015,03,24,01,35,6.30
2015,03,24,01,36,6.30
2015,03,24,01,37,6.30
2015,03,24,01,38,6.30
2015,03,24,01,39,6.30
2015,03,24,01,40,6.30
2015,03,24,01,41,6.30
2015,03,24,01,42,6.30
2015,03,24,01,43,6.20
2015,03,24,01,44,6.20
2015,03,24,01,45,6.20
2015,03,24,01,46,6.20
2015,03,24,01,47,6.20
2015,03,24,01,48,6.20
2015,03,24,01,49,6.20
2015,03,24,01,50,6.20
2015,03,24,01,51,6.20
2015,03,24,01,52,6.20
2015,03,24,01,53,6.20
2015,03,24,01,54,6.20
2015,03,24,01,55,6.20
2015,03,24,01,56,6.20
2015,03,24,01,57,6.20
2015,03,24,01,58,6.20
2015,03,24,01,59,6.20
2015,03,24,02,00,6.20
2015,03,24,02,01,6.20
2015,03,24,02,02,6.20
2015,03,24,02,03,6.20
2015,03,24,02,04,6.20
2015,03,24,02,05,6.20
2015,03,24,02,06,6.20
2015,03,24,02,07,6.20
2015,03,24,02,08,6.20
2015,03,24,02,09,6.20
2015,03,24,02,10,6.20
2015,03,24,02,11,6.20
2015,03,24,02,12,6.20
2015,03,24,02,13,6.20
2015,03,24,02,14,6.20
2015,03,24,02,15,6.20
2015,03,24,02,16,6.20
2015,03,24,02,17,6.20
2015,03,24,02,18,6.20
2015,03,24,02,19,6.20
2015,03,24,02,20,6.20
2015,03,24,02,21,6.20
2015,03,24,02,22,6.20
2015,03,24,02,23,6.20
2015,03,24,02,24,6.20
2015,03,24,02,25,6.20
2015,03,24,02,26,6.20
2015,03,24,02,27,6.20
2015,03,24,02,28,6.20
2015,03,24,02,29,6.20
2015,03,24,02,30,6.20
2015,03,24,02,31,6.20
2015,03,24,02,32,6.20
2015,03,24,02,33,6.20
2015,03,24,02,34,6.20
2015,03,24,02,35,6.20
2015,03,24,02,36,6.20
2015,03,24,02,37,6.20
2015,03,24,02,38,6.20
2015,03,24,02,39,6.20
2015,03,24,02,40,6.20
2015,03,24,02,41,6.20
2015,03,24,02,42,6.20
2015,03,24,02,43,6.20
2015,03,24,02,44,6.20
2015,03,24,02,45,6.20
2015,03,24,02,46,6.20
2015,03,24,02,47,6.20
2015,03,24,02,48,6.20
2015,03,24,02,49,6.20
2015,03,24,02,50,6.20
2015,03,24,02,51,6.20
2015,03,24,02,52,6.20
2015,03,24,02,53,6.20
2015,03,24,02,54,6.20
2015,03,24,02,55,6.20
2015,03,24,02,56,6.20
2015,03,24,02,57,6.20
2015,03,24,02,58,6.20
2015,03,24,02,59,6.20
2015,03,24,03,00,6.20
2015,03,24,03,01,6.20
2015,03,24,03,02,6.20
2015,03,24,03,03,6.20
2015,03,24,03,04,6.20
2015,03,24,03,05,6.20
2015,03,24,03,06,6.20
2015,03,24,03,07,6.20
2015,03,24,03,08,6.20
2015,03,24,03,09,6.20
2015,03,24,03,10,6.20
2015,03,24,03,11,6.20
2015,03,24,03,12,6.20
2015,03,24,03,13,6.20
2015,03,24,03,14,6.20
2015,03,24,03,15,6.20
2015,03,24,03,16,6.10
2015,03,24,03,17,6.20
2015,03,24,03,18,6.10
2015,03,24,03,19,6.20
2015,03,24,03,20,6.20
2015,03,24,03,21,6.20
2015,03,24,03,22,6.10
2015,03,24,03,23,6.10
2015,03,24,03,24,6.10
2015,03,24,03,25,6.20
2015,03,24,03,26,6.20
2015,03,24,03,27,6.20
2015,03,24,03,28,6.20
2015,03,24,03,29,6.20
2015,03,24,03,30,6.20
2015,03,24,03,31,6.20
2015,03,24,03,32,6.20
2015,03,24,03,33,6.20
2015,03,24,03,34,6.20
2015,03,24,03,35,6.20
2015,03,24,03,36,6.20
2015,03,24,03,37,6.20
2015,03,24,03,38,6.20
2015,03,24,03,39,6.20
2015,03,24,03,40,6.20
2015,03,24,03,41,6.20
2015,03,24,03,42,6.10
2015,03,24,03,43,6.10
2015,03,24,03,44,6.20
2015,03,24,03,45,6.10
2015,03,24,03,46,6.10
2015,03,24,03,47,6.10
2015,03,24,03,48,6.10
2015,03,24,03,49,6.10
2015,03,24,03,50,6.10
2015,03,24,03,51,6.10
2015,03,24,03,52,6.10
2015,03,24,03,53,6.10
2015,03,24,03,54,6.10
2015,03,24,03,55,6.10
2015,03,24,03,56,6.00
2015,03,24,03,57,6.00
2015,03,24,03,58,6.00
2015,03,24,03,59,6.00
2015,03,24,04,00,6.00
2015,03,24,04,01,6.00
2015,03,24,04,02,6.00
2015,03,24,04,03,6.00
2015,03,24,04,04,6.00
2015,03,24,04,05,6.00
2015,03,24,04,06,6.00
2015,03,24,04,07,6.00
2015,03,24,04,08,6.00
2015,03,24,04,09,6.00
2015,03,24,04,10,6.00
2015,03,24,04,11,6.00
2015,03,24,04,12,6.00
2015,03,24,04,13,6.00
2015,03,24,04,14,6.00
2015,03,24,04,15,6.00
2015,03,24,04,16,6.00
2015,03,24,04,17,5.90
2015,03,24,04,18,5.90
2015,03,24,04,19,5.90
2015,03,24,04,20,5.90
2015,03,24,04,21,6.00
2015,03,24,04,22,5.90
2015,03,24,04,23,5.90
2015,03,24,04,24,5.90
2015,03,24,04,25,5.90
2015,03,24,04,26,5.90
2015,03,24,04,27,5.90
2015,03,24,04,28,5.90
2015,03,24,04,29,5.90
2015,03,24,04,30,5.90
2015,03,24,04,31,5.90
2015,03,24,04,32,5.90
2015,03,24,04,33,5.90
2015,03,24,04,34,5.90
2015,03,24,04,35,5.90
2015,03,24,04,36,5.90
2015,03,24,04,37,5.90
2015,03,24,04,38,5.90
2015,03,24,04,39,5.90
2015,03,24,04,40,5.90
2015,03,24,04,41,5.90
2015,03,24,04,42,5.90
2015,03,24,04,43,5.90
2015,03,24,04,44,5.90
2015,03,24,04,45,5.90
2015,03,24,04,46,5.90
2015,03,24,04,47,5.90
2015,03,24,04,48,5.90
2015,03,24,04,49,5.90
2015,03,24,04,50,5.90
2015,03,24,04,51,5.90
2015,03,24,04,52,5.90
2015,03,24,04,53,5.90
2015,03,24,04,54,5.90
2015,03,24,04,55,5.90
2015,03,24,04,56,5.90
2015,03,24,04,57,5.90
2015,03,24,04,58,5.90
2015,03,24,04,59,5.90
2015,03,24,05,00,5.90
2015,03,24,05,01,5.90
2015,03,24,05,02,5.90
2015,03,24,05,03,5.90
2015,03,24,05,04,5.90
2015,03,24,05,05,5.90
2015,03,24,05,06,5.90
2015,03,24,05,07,5.90
2015,03,24,05,08,5.90
2015,03,24,05,09,5.90
2015,03,24,05,10,5.90
2015,03,24,05,11,5.90
2015,03,24,05,12,5.90
2015,03,24,05,13,5.90
2015,03,24,05,14,5.90
2015,03,24,05,15,5.90
2015,03,24,05,16,5.90
2015,03,24,05,17,5.90
2015,03,24,05,18,5.90
2015,03,24,05,19,6.00
2015,03,24,05,20,6.00
2015,03,24,05,21,6.00
2015,03,24,05,22,6.00
2015,03,24,05,23,6.00
2015,03,24,05,24,6.00
2015,03,24,05,25,6.00
2015,03,24,05,26,6.00
2015,03,24,05,27,6.00
2015,03,24,05,28,6.00
2015,03,24,05,29,6.00
2015,03,24,05,30,6.00
2015,03,24,05,31,6.00
2015,03,24,05,32,6.00
2015,03,24,05,33,6.00
2015,03,24,05,34,5.90
2015,03,24,05,35,5.90
2015,03,24,05,36,5.90
2015,03,24,05,37,5.90
2015,03,24,05,38,6.00
2015,03,24,05,39,5.90
2015,03,24,05,40,5.90
2015,03,24,05,41,5.90
2015,03,24,05,42,5.90
2015,03,24,05,43,5.90
2015,03,24,05,44,5.90
2015,03,24,05,45,6.00
2015,03,24,05,46,5.90
2015,03,24,05,47,6.00
2015,03,24,05,48,6.00
2015,03,24,05,49,6.00
2015,03,24,05,50,6.00
2015,03,24,05,51,5.90
2015,03,24,05,52,5.90
2015,03,24,05,53,6.00
2015,03,24,05,54,6.00
2015,03,24,05,55,6.00
2015,03,24,05,56,6.00
2015,03,24,05,57,6.00
2015,03,24,05,58,6.00
2015,03,24,05,59,6.00
2015,03,24,06,00,6.00
2015,03,24,06,01,6.00
2015,03,24,06,02,6.00
2015,03,24,06,03,6.00
2015,03,24,06,04,6.00
2015,03,24,06,05,6.00
2015,03,24,06,06,6.00
2015,03,24,06,07,6.00
2015,03,24,06,08,6.00
2015,03,24,06,09,6.00
2015,03,24,06,10,6.00
2015,03,24,06,11,6.00
2015,03,24,06,12,6.00
2015,03,24,06,13,6.00
2015,03,24,06,14,6.00
2015,03,24,06,15,6.00
2015,03,24,06,16,6.00
2015,03,24,06,17,6.00
2015,03,24,06,18,6.00
2015,03,24,06,19,6.00
2015,03,24,06,20,6.00
2015,03,24,06,21,6.00
2015,03,24,06,22,6.00
2015,03,24,06,23,6.00
2015,03,24,06,24,6.00
2015,03,24,06,25,6.00
2015,03,24,06,26,6.00
2015,03,24,06,27,5.90
2015,03,24,06,28,5.90
2015,03,24,06,29,5.90
2015,03,24,06,30,5.90
2015,03,24,06,31,5.90
2015,03,24,06,32,5.90
2015,03,24,06,33,5.90
2015,03,24,06,34,5.90
2015,03,24,06,35,5.90
2015,03,24,06,36,5.90
2015,03,24,06,37,5.90
2015,03,24,06,38,5.90
2015,03,24,06,39,5.90
2015,03,24,06,40,5.90
2015,03,24,06,41,5.90
2015,03,24,06,42,5.90
2015,03,24,06,43,5.90
2015,03,24,06,44,5.90
2015,03,24,06,45,5.90
2015,03,24,06,46,5.90
2015,03,24,06,47,5.90
2015,03,24,06,48,5.90
2015,03,24,06,49,5.90
2015,03,24,06,50,5.90
2015,03,24,06,51,5.90
2015,03,24,06,52,5.90
2015,03,24,06,53,5.90
2015,03,24,06,54,5.90
2015,03,24,06,55,5.90
2015,03,24,06,56,5.80
2015,03,24,06,57,5.80
2015,03,24,06,58,5.80
2015,03,24,06,59,5.80
2015,03,24,07,00,5.80
2015,03,24,07,01,5.80
2015,03,24,07,02,5.80
2015,03,24,07,03,5.80
2015,03,24,07,04,5.80
2015,03,24,07,05,5.80
2015,03,24,07,06,5.80
2015,03,24,07,07,5.80
2015,03,24,07,08,5.80
2015,03,24,07,09,5.80
2015,03,24,07,10,5.80
2015,03,24,07,11,5.80
2015,03,24,07,12,5.80
2015,03,24,07,13,5.80
2015,03,24,07,14,5.70
2015,03,24,07,15,5.80
2015,03,24,07,16,5.70
2015,03,24,07,17,5.70
2015,03,24,07,18,5.70
2015,03,24,07,19,5.70
2015,03,24,07,20,5.70
2015,03,24,07,21,5.70
2015,03,24,07,22,5.70
2015,03,24,07,23,5.70
2015,03,24,07,24,5.70
2015,03,24,07,25,5.70
2015,03,24,07,26,5.80
2015,03,24,07,27,5.80
2015,03,24,07,28,5.80
2015,03,24,07,29,5.80
2015,03,24,07,30,5.80
2015,03,24,07,31,5.80
2015,03,24,07,32,5.80
2015,03,24,07,33,5.80
2015,03,24,07,34,5.80
2015,03,24,07,35,5.80
2015,03,24,07,36,5.80
2015,03,24,07,37,5.80
2015,03,24,07,38,5.80
2015,03,24,07,39,5.80
2015,03,24,07,40,5.80
2015,03,24,07,41,5.80
2015,03,24,07,42,5.80
2015,03,24,07,43,5.80
2015,03,24,07,44,5.80
2015,03,24,07,45,5.80
2015,03,24,07,46,5.80
2015,03,24,07,47,5.80
2015,03,24,07,48,5.80
2015,03,24,07,49,5.80
2015,03,24,07,50,5.80
2015,03,24,07,51,5.80
2015,03,24,07,52,5.80
2015,03,24,07,53,5.80
2015,03,24,07,54,5.90
2015,03,24,07,55,5.90
2015,03,24,07,56,5.90
2015,03,24,07,57,5.90
2015,03,24,07,58,5.90
2015,03,24,07,59,5.90
2015,03,24,08,00,5.90
2015,03,24,08,01,5.90
2015,03,24,08,02,5.90
2015,03,24,08,03,5.90
2015,03,24,08,04,5.90
2015,03,24,08,05,5.90
2015,03,24,08,06,5.90
2015,03,24,08,07,5.90
2015,03,24,08,08,6.00
2015,03,24,08,09,6.00
2015,03,24,08,10,6.00
2015,03,24,08,11,6.00
2015,03,24,08,12,6.00
2015,03,24,08,13,6.00
2015,03,24,08,14,6.10
2015,03,24,08,15,6.10
2015,03,24,08,16,6.10
2015,03,24,08,17,6.10
2015,03,24,08,18,6.10
2015,03,24,08,19,6.10
2015,03,24,08,20,6.10
2015,03,24,08,21,6.10
2015,03,24,08,22,6.10
2015,03,24,08,23,6.10
2015,03,24,08,24,6.10
2015,03,24,08,25,6.20
2015,03,24,08,26,6.20
2015,03,24,08,27,6.20
2015,03,24,08,28,6.20
2015,03,24,08,29,6.20
2015,03,24,08,30,6.20
2015,03,24,08,31,6.20
2015,03,24,08,32,6.20
2015,03,24,08,33,6.20
2015,03,24,08,34,6.20
2015,03,24,08,35,6.20
2015,03,24,08,36,6.20
2015,03,24,08,37,6.20
2015,03,24,08,38,6.30
2015,03,24,08,39,6.30
2015,03,24,08,40,6.30
2015,03,24,08,41,6.30
2015,03,24,08,42,6.30
2015,03,24,08,43,6.30
2015,03,24,08,44,6.30
2015,03,24,08,45,6.30
2015,03,24,08,46,6.30
2015,03,24,08,47,6.40
2015,03,24,08,48,6.40
2015,03,24,08,49,6.40
2015,03,24,08,50,6.40
2015,03,24,08,51,6.40
2015,03,24,08,52,6.40
2015,03,24,08,53,6.40
2015,03,24,08,54,6.50
2015,03,24,08,55,6.50
2015,03,24,08,56,6.50
2015,03,24,08,57,6.50
2015,03,24,08,58,6.60
2015,03,24,08,59,6.60
2015,03,24,09,00,6.60
2015,03,24,09,01,6.60
2015,03,24,09,02,6.60
2015,03,24,09,03,6.60
2015,03,24,09,04,6.60
2015,03,24,09,05,6.60
2015,03,24,09,06,6.60
2015,03,24,09,07,6.60
2015,03,24,09,08,6.60
2015,03,24,09,09,6.60
2015,03,24,09,10,6.70
2015,03,24,09,11,6.70
2015,03,24,09,12,6.70
2015,03,24,09,13,6.70
2015,03,24,09,14,6.70
2015,03,24,09,15,6.80
2015,03,24,09,16,6.80
2015,03,24,09,17,6.80
2015,03,24,09,18,6.80
2015,03,24,09,19,6.80
2015,03,24,09,20,6.80
2015,03,24,09,21,6.80
2015,03,24,09,22,6.80
2015,03,24,09,23,6.80
2015,03,24,09,24,6.90
2015,03,24,09,25,6.90
2015,03,24,09,26,6.90
2015,03,24,09,27,6.90
2015,03,24,09,28,6.90
2015,03,24,09,29,6.90
2015,03,24,09,30,7.00
2015,03,24,09,31,7.00
2015,03,24,09,32,7.00
2015,03,24,09,33,7.00
2015,03,24,09,34,7.00
2015,03,24,09,35,7.00
2015,03,24,09,36,7.10
2015,03,24,09,37,7.10
2015,03,24,09,38,7.10
2015,03,24,09,39,7.10
2015,03,24,09,40,7.20
2015,03,24,09,41,7.20
2015,03,24,09,42,7.20
2015,03,24,09,43,7.20
2015,03,24,09,44,7.20
2015,03,24,09,45,7.20
2015,03,24,09,46,7.20
2015,03,24,09,47,7.20
2015,03,24,09,48,7.20
2015,03,24,09,49,7.20
2015,03,24,09,50,7.20
2015,03,24,09,51,7.20
2015,03,24,09,52,7.20
2015,03,24,12,42,9.70
2015,03,24,12,43,9.70
2015,03,24,12,44,9.60
2015,03,24,12,45,9.50
2015,03,24,12,46,9.40
2015,03,24,12,47,9.40
2015,03,24,12,48,9.30
2015,03,24,12,49,9.30
2015,03,24,12,50,9.30
2015,03,24,12,51,9.20
2015,03,24,12,52,9.20
2015,03,24,12,53,9.10
2015,03,24,12,54,9.10
2015,03,24,12,55,9.00
2015,03,24,12,56,9.00
2015,03,24,12,57,9.10
2015,03,24,12,58,9.10
2015,03,24,12,59,9.10
2015,03,24,13,00,9.10
2015,03,24,13,01,9.00
2015,03,24,13,02,9.00
2015,03,24,13,03,9.00
2015,03,24,13,04,9.00
2015,03,24,13,05,8.90
2015,03,24,13,06,8.90
2015,03,24,13,07,9.00
2015,03,24,13,08,9.00
2015,03,24,13,09,9.00
2015,03,24,13,10,9.10
2015,03,24,13,11,9.10
2015,03,24,13,12,9.10
2015,03,24,13,13,9.20
2015,03,24,13,14,9.20
2015,03,24,13,15,9.30
2015,03,24,13,16,9.20
2015,03,24,13,17,9.20
2015,03,24,13,18,9.20
2015,03,24,13,19,9.20
2015,03,24,13,20,9.10
2015,03,24,13,21,9.10
2015,03,24,13,22,9.10
2015,03,24,13,23,9.00
2015,03,24,13,24,9.10
2015,03,24,13,25,9.10
2015,03,24,13,26,9.10
2015,03,24,13,27,9.00
2015,03,24,13,28,9.00
2015,03,24,13,29,9.00
2015,03,24,13,30,9.00
2015,03,24,13,31,9.00
2015,03,24,13,32,9.00
2015,03,24,13,33,9.00
2015,03,24,13,34,9.00
2015,03,24,13,35,9.00
2015,03,24,13,36,9.00
2015,03,24,13,37,9.10
2015,03,24,13,38,9.10
2015,03,24,13,39,9.10
2015,03,24,13,40,9.10
2015,03,24,13,41,9.10
2015,03,24,13,42,9.10
2015,03,24,13,43,9.10
2015,03,24,13,44,9.20
2015,03,24,13,45,9.20
2015,03,24,13,46,9.20
2015,03,24,13,47,9.20
2015,03,24,13,48,9.20
2015,03,24,13,49,9.20
2015,03,24,13,50,9.30
2015,03,24,13,51,9.30
2015,03,24,13,52,9.40
2015,03,24,13,53,9.40
2015,03,24,13,54,9.50
2015,03,24,13,55,9.60
2015,03,24,13,56,9.70
2015,03,24,13,57,9.80
2015,03,24,13,58,9.80
2015,03,24,13,59,9.90
2015,03,24,14,00,9.90
2015,03,24,14,01,10.00
2015,03,24,14,02,10.10
2015,03,24,14,03,10.10
2015,03,24,14,04,10.20
2015,03,24,14,05,10.20
2015,03,24,14,06,10.20
2015,03,24,14,07,10.20
2015,03,24,14,08,10.20
2015,03,24,14,09,10.20
2015,03,24,14,10,10.20
2015,03,24,14,11,10.20
2015,03,24,14,12,10.20
2015,03,24,14,13,10.20
2015,03,24,14,14,10.20
2015,03,24,14,15,10.20
2015,03,24,14,16,10.20
2015,03,24,14,17,10.20
2015,03,24,14,18,10.20
2015,03,24,14,19,10.20
2015,03,24,14,20,10.20
2015,03,24,14,21,10.20
2015,03,24,14,54,10.70
2015,03,24,14,55,10.80
2015,03,24,14,56,10.80
2015,03,24,14,57,10.90
2015,03,24,14,58,10.90
2015,03,24,14,59,10.90
2015,03,24,15,00,10.90
2015,03,24,15,01,10.90
2015,03,24,15,02,10.80
2015,03,24,15,03,10.80
2015,03,24,15,04,10.80
2015,03,24,15,05,10.80
2015,03,24,15,06,10.70
2015,03,24,15,07,10.70
2015,03,24,15,08,10.70
2015,03,24,15,09,10.70
2015,03,24,15,10,10.60
2015,03,24,15,11,10.70
2015,03,24,15,12,10.70
2015,03,24,15,13,10.70
2015,03,24,15,14,10.70
2015,03,24,15,15,10.80
2015,03,24,15,16,10.80
2015,03,24,15,17,10.80
2015,03,24,15,18,10.80
2015,03,24,15,19,10.70
2015,03,24,15,20,10.70
2015,03,24,15,21,10.70
2015,03,24,15,22,10.60
2015,03,24,15,23,10.60
2015,03,24,15,24,10.60
2015,03,24,15,25,10.50
2015,03,24,15,26,10.50
2015,03,24,15,27,10.50
2015,03,24,15,28,10.40
2015,03,24,15,29,10.40
2015,03,24,15,30,10.40
2015,03,24,15,31,10.40
2015,03,24,15,32,10.40
2015,03,24,15,33,10.40
2015,03,24,15,34,10.30
2015,03,24,15,35,10.30
2015,03,24,15,36,10.20
2015,03,24,15,37,10.20
2015,03,24,15,38,10.10
2015,03,24,15,39,10.10
2015,03,24,15,40,10.10
2015,03,24,15,41,10.10
2015,03,24,15,42,10.10
2015,03,24,15,43,10.10
2015,03,24,15,44,10.10
2015,03,24,15,45,10.10
2015,03,24,15,46,10.10
2015,03,24,15,47,10.20
2015,03,24,15,48,10.20
2015,03,24,15,49,10.20
2015,03,24,15,50,10.30
2015,03,24,15,51,10.30
2015,03,24,15,52,10.30
2015,03,24,15,53,10.40
2015,03,24,15,54,10.40
2015,03,24,15,55,10.50
2015,03,24,15,56,10.50
2015,03,24,15,57,10.60
2015,03,24,15,58,10.70
2015,03,24,15,59,10.90
2015,03,24,16,00,10.90
2015,03,24,16,01,11.00
2015,03,24,16,02,11.10
2015,03,24,16,03,11.20
2015,03,24,16,04,11.20
2015,03,24,16,05,11.20
2015,03,24,16,06,11.20
2015,03,24,16,07,11.20
2015,03,24,16,08,11.10
2015,03,24,16,09,11.10
2015,03,24,16,10,11.10
2015,03,24,16,11,11.10
2015,03,24,16,12,11.10
2015,03,24,16,13,11.10
2015,03,24,16,14,11.20
2015,03,24,16,15,11.30
2015,03,24,16,16,11.30
2015,03,24,16,17,11.20
2015,03,24,16,18,11.20
2015,03,24,16,19,11.10
2015,03,24,16,20,11.00
2015,03,24,16,21,10.90
2015,03,24,16,22,10.80
2015,03,24,16,23,10.70
2015,03,24,16,24,10.70
2015,03,24,16,25,10.70
2015,03,24,16,26,10.70
2015,03,24,16,27,10.70
2015,03,24,16,28,10.70
2015,03,24,16,29,10.60
2015,03,24,16,30,10.60
2015,03,24,16,31,10.60
2015,03,24,16,32,10.60
2015,03,24,16,33,10.50
2015,03,24,16,34,10.50
2015,03,24,16,35,10.50
2015,03,24,16,36,10.40
2015,03,24,16,37,10.40
2015,03,24,16,38,10.40
2015,03,24,16,39,10.30
2015,03,24,16,40,10.30
2015,03,24,16,41,10.30
2015,03,24,16,42,10.30
2015,03,24,16,43,10.30
2015,03,24,16,44,10.30
2015,03,24,16,45,10.30
2015,03,24,16,46,10.40
2015,03,24,16,47,10.40
2015,03,24,16,48,10.40
2015,03,24,16,49,10.40
2015,03,24,16,50,10.40
2015,03,24,16,51,10.50
2015,03,24,16,52,10.50
2015,03,24,16,53,10.60
2015,03,24,16,54,10.50
2015,03,24,16,55,10.50
2015,03,24,16,56,10.60
2015,03,24,16,57,10.60
2015,03,24,16,58,10.60
2015,03,24,16,59,10.60
2015,03,24,17,00,10.60
2015,03,24,17,01,10.60
2015,03,24,17,02,10.60
2015,03,24,17,03,10.50
2015,03,24,17,04,10.50
2015,03,24,17,05,10.40
2015,03,24,17,06,10.40
2015,03,24,17,07,10.40
2015,03,24,17,08,10.40
2015,03,24,17,09,10.30
2015,03,24,17,10,10.30
2015,03,24,17,11,10.30
2015,03,24,17,12,10.30
2015,03,24,17,13,10.30
2015,03,24,17,14,10.30
2015,03,24,17,15,10.30
2015,03,24,17,16,10.30
2015,03,24,17,17,10.30
2015,03,24,17,18,10.30
2015,03,24,17,19,10.30
2015,03,24,17,20,10.30
2015,03,24,17,21,10.30
2015,03,24,17,22,10.30
2015,03,24,17,23,10.30
2015,03,24,17,24,10.30
2015,03,24,17,25,10.30
2015,03,24,17,26,10.30
2015,03,24,17,27,10.30
2015,03,24,17,28,10.30
2015,03,24,17,29,10.20
2015,03,24,17,30,10.20
2015,03,24,17,31,10.20
2015,03,24,17,32,10.20
2015,03,24,17,33,10.20
2015,03,24,17,34,10.20
2015,03,24,17,35,10.20
2015,03,24,17,36,10.20
2015,03,24,17,37,10.20
2015,03,24,17,38,10.20
2015,03,24,17,39,10.20
2015,03,24,17,40,10.20
2015,03,24,17,41,10.20
2015,03,24,17,42,10.20
2015,03,24,17,43,10.20
2015,03,24,17,44,10.20
2015,03,24,17,45,10.20
2015,03,24,17,46,10.20
2015,03,24,17,47,10.20
2015,03,24,17,48,10.20
2015,03,24,17,49,10.20
2015,03,24,17,50,10.20
2015,03,24,17,51,10.20
2015,03,24,17,52,10.20
2015,03,24,17,53,10.30
2015,03,24,17,54,10.30
2015,03,24,17,55,10.30
2015,03,24,17,56,10.30
2015,03,24,17,57,10.30
2015,03,24,17,58,10.30
2015,03,24,17,59,10.30
2015,03,24,18,00,10.30
2015,03,24,18,01,10.30
2015,03,24,18,02,10.30
2015,03,24,18,03,10.30
2015,03,24,18,04,10.30
2015,03,24,18,05,10.30
2015,03,24,18,06,10.30
2015,03,24,18,07,10.30
2015,03,24,18,08,10.30
2015,03,24,18,09,10.30
2015,03,24,18,10,10.30
2015,03,24,18,11,10.30
2015,03,24,18,12,10.30
2015,03,24,18,13,10.30
2015,03,24,18,14,10.30
2015,03,24,18,15,10.30
2015,03,24,18,16,10.30
2015,03,24,18,17,10.30
2015,03,24,18,18,10.30
2015,03,24,18,19,10.30
2015,03,24,18,20,10.30
2015,03,24,18,21,10.20
2015,03,24,18,22,10.20
2015,03,24,18,23,10.20
2015,03,24,18,24,10.20
2015,03,24,18,25,10.20
2015,03,24,18,26,10.20
2015,03,24,18,27,10.20
2015,03,24,18,28,10.20
2015,03,24,18,29,10.20
2015,03,24,18,30,10.20
2015,03,24,18,31,10.20
2015,03,24,18,32,10.20
2015,03,24,18,33,10.20
2015,03,24,18,34,10.20
2015,03,24,18,35,10.20
2015,03,24,18,36,10.10
2015,03,24,18,37,10.10
2015,03,24,18,38,10.10
2015,03,24,18,39,10.10
2015,03,24,18,40,10.10
2015,03,24,18,41,10.10
2015,03,24,18,42,10.10
2015,03,24,18,43,10.10
2015,03,24,18,44,10.10
2015,03,24,18,45,10.00
2015,03,24,18,46,10.00
2015,03,24,18,47,10.00
2015,03,24,18,48,10.00
2015,03,24,18,49,10.00
2015,03,24,18,50,10.00
2015,03,24,18,51,9.90
2015,03,24,18,52,9.90
2015,03,24,18,53,9.90
2015,03,24,18,54,9.90
2015,03,24,18,55,9.90
2015,03,24,18,56,9.90
2015,03,24,18,57,9.90
2015,03,24,18,58,9.90
2015,03,24,18,59,9.90
2015,03,24,19,00,9.90
2015,03,24,19,01,9.90
2015,03,24,19,02,9.90
2015,03,24,19,03,9.90
2015,03,24,19,04,9.90
2015,03,24,19,05,9.90
2015,03,24,19,06,9.90
2015,03,24,19,07,9.80
2015,03,24,19,08,9.80
2015,03,24,19,09,9.80
2015,03,24,19,10,9.80
2015,03,24,19,11,9.80
2015,03,24,19,12,9.80
2015,03,24,19,13,9.80
2015,03,24,19,14,9.80
2015,03,24,19,15,9.80
2015,03,24,19,16,9.80
2015,03,24,19,17,9.80
2015,03,24,19,18,9.80
2015,03,24,19,19,9.80
2015,03,24,19,20,9.80
2015,03,24,19,21,9.80
2015,03,24,19,22,9.80
2015,03,24,19,23,9.70
2015,03,24,19,24,9.70
2015,03,24,19,25,9.70
2015,03,24,19,26,9.70
2015,03,24,19,27,9.70
2015,03,24,19,28,9.70
2015,03,24,19,29,9.70
2015,03,24,19,30,9.70
2015,03,24,19,31,9.70
2015,03,24,19,32,9.70
2015,03,24,19,33,9.70
2015,03,24,19,34,9.70
2015,03,24,19,35,9.70
2015,03,24,19,36,9.70
2015,03,24,19,37,9.70
2015,03,24,19,38,9.70
2015,03,24,19,39,9.60
2015,03,24,19,40,9.70
2015,03,24,19,41,9.70
2015,03,24,19,42,9.70
2015,03,24,19,43,9.60
2015,03,24,19,44,9.60
2015,03,24,19,45,9.60
2015,03,24,19,46,9.60
2015,03,24,19,47,9.60
2015,03,24,19,48,9.60
2015,03,24,19,49,9.60
2015,03,24,19,50,9.60
2015,03,24,19,51,9.60
2015,03,24,19,52,9.60
2015,03,24,19,53,9.60
2015,03,24,19,54,9.60
2015,03,24,19,55,9.60
2015,03,24,19,56,9.50
2015,03,24,19,57,9.50
2015,03,24,19,58,9.50
2015,03,24,19,59,9.50
2015,03,24,20,00,9.50
2015,03,24,20,01,9.50
2015,03,24,20,02,9.50
2015,03,24,20,03,9.40
2015,03,24,20,04,9.40
2015,03,24,20,05,9.40
2015,03,24,20,06,9.40
2015,03,24,20,07,9.40
2015,03,24,20,08,9.40
2015,03,24,20,09,9.40
2015,03,24,20,10,9.40
2015,03,24,20,11,9.40
2015,03,24,20,12,9.40
2015,03,24,20,13,9.40
2015,03,24,20,14,9.40
2015,03,24,20,15,9.30
2015,03,24,20,16,9.30
2015,03,24,20,17,9.40
2015,03,24,20,18,9.30
2015,03,24,20,19,9.30
2015,03,24,20,20,9.30
2015,03,24,20,21,9.30
2015,03,24,20,22,9.30
2015,03,24,20,23,9.30
2015,03,24,20,24,9.30
2015,03,24,20,25,9.30
2015,03,24,20,26,9.30
2015,03,24,20,27,9.30
2015,03,24,20,28,9.30
2015,03,24,20,29,9.30
2015,03,24,20,30,9.30
2015,03,24,20,31,9.30
2015,03,24,20,32,9.30
2015,03,24,20,33,9.30
2015,03,24,20,34,9.30
2015,03,24,20,35,9.30
2015,03,24,20,36,9.30
2015,03,24,20,37,9.30
2015,03,24,20,38,9.30
2015,03,24,20,39,9.30
2015,03,24,20,40,9.30
2015,03,24,20,41,9.30
2015,03,24,20,42,9.30
2015,03,24,20,43,9.30
2015,03,24,20,44,9.30
2015,03,24,20,45,9.30
2015,03,24,20,46,9.30
2015,03,24,20,47,9.30
2015,03,24,20,48,9.30
2015,03,24,20,49,9.30
2015,03,24,20,50,9.30
2015,03,24,20,51,9.30
2015,03,24,20,52,9.30
2015,03,24,20,53,9.30
2015,03,24,20,54,9.30
2015,03,24,20,55,9.30
2015,03,24,20,56,9.30
2015,03,24,20,57,9.30
2015,03,24,20,58,9.30
2015,03,24,20,59,9.30
2015,03,24,21,00,9.30
2015,03,24,21,01,9.30
2015,03,24,21,02,9.30
2015,03,24,21,03,9.30
2015,03,24,21,04,9.30
2015,03,24,21,05,9.40
2015,03,24,21,06,9.40
2015,03,24,21,07,9.40
2015,03,24,21,08,9.40
2015,03,24,21,09,9.40
2015,03,24,21,10,9.40
2015,03,24,21,11,9.40
2015,03,24,21,12,9.40
2015,03,24,21,13,9.40
2015,03,24,21,14,9.40
2015,03,24,21,15,9.40
2015,03,24,21,16,9.40